Amarillo, TX

1:42 AM CST on November 19, 2019 (GMT -0600)
Amarillo International

Weather History for KAMA - May, 2019

Change the Weather History Date:

Monday, May 20, 2019

  Actual Average Record
Temperature  
Mean Temperature 58 °F 67 °F  
Max Temperature 65 °F 81 °F 100 °F (1925)
Min Temperature 50 °F 53 °F 38 °F (2017)
Degree Days  
Heating Degree Days 7 2  
Month to date heating degree days 102 68  
Since 1 July heating degree days 4085 4156  
Cooling Degree Days 0 4  
Month to date cooling degree days 28 49  
Year to date cooling degree days 44 70  
Growing Degree Days 8 (Base 50)    
Moisture  
Dew Point 54 °F    
Average Humidity 86    
Maximum Humidity 100    
Minimum Humidity 72    
Precipitation  
Precipitation 0.40 in 0.08 in 1.76 in (1949)
Month to date precipitation 1.75 1.23  
Year to date precipitation 5.84 5.30  
Snow  
Snow 0.00 in 0.00 in T in (2000)
Month to date snowfall 0.0 0.2  
Since 1 July snowfall 8.1 17.8  
Snow Depth 0.00 in    
Sea Level Pressure  
Sea Level Pressure 29.63 in    
Wind  
Wind Speed 16 mph (ENE)    
Max Wind Speed 32 mph    
Max Gust Speed 39 mph    
Visibility 6 miles    
Events Fog , Rain , Thunderstorm    
T = Trace of Precipitation, MM = Missing Value Source: NWS Daily Summary

Daily Weather History Graph

Daily Weather History Graph

Search for Another Location

Airport or City:

Astronomy

May. 20, 2019 Rise Set
Actual Time 6:39 AM CDT 8:47 PM CDT
Civil Twilight 6:10 AM CDT 9:16 PM CDT
Nautical Twilight 5:36 AM CDT 9:51 PM CDT
Astronomical Twilight 4:58 AM CDT 10:28 PM CDT
Moon 10:49 PM CDT (5/20) 8:09 AM CDT (5/20)
Length of Visible Light 15h 05m
Length of Day
14h 08m
Waning Gibbous, 96% of the Moon is Illuminated
May 20
Waning Gibbous
May 26
Last Quarter
Jun 3
New
Jun 10
First Quarter
Jun 17
Full

Hourly Weather History & Observations

Time (CDT) Temp. Dew Point Humidity Pressure Visibility Wind Dir Wind Speed Gust Speed Precip Events Conditions
12:53 AM 59.0 °F 50.0 °F 72% 29.78 in 10.0 mi SE 17.3 mph - N/A   Clear
1:53 AM 57.9 °F 50.0 °F 75% 29.76 in 10.0 mi SE 20.7 mph - N/A   Clear
2:53 AM 57.9 °F 51.1 °F 78% 29.71 in 10.0 mi SE 19.6 mph - N/A   Clear
3:53 AM 59.0 °F 52.0 °F 78% 29.68 in 10.0 mi SE 21.9 mph 31.1 mph N/A   Overcast
4:04 AM 60.1 °F 52.0 °F 75% 29.80 in 10.0 mi SE 26.5 mph 33.4 mph N/A   Overcast
4:53 AM 60.1 °F 52.0 °F 75% 29.66 in 10.0 mi SE 24.2 mph 35.7 mph N/A   Overcast
5:48 AM 60.8 °F 53.6 °F 77% 29.78 in 10.0 mi SE 26.5 mph 34.5 mph 0.00 in   Overcast
5:53 AM 60.1 °F 53.1 °F 78% 29.65 in 10.0 mi SE 23.0 mph 34.5 mph 0.00 in   Overcast
6:53 AM 59.0 °F 54.0 °F 83% 29.64 in 10.0 mi SE 19.6 mph - N/A   Overcast
7:00 AM 59.0 °F 54.0 °F 83% 29.77 in 10.0 mi SE 19.6 mph - N/A   Overcast
7:53 AM 57.9 °F 55.9 °F 93% 29.61 in 5.0 mi SE 20.7 mph - 0.00 in   Overcast
8:03 AM 57.9 °F 55.9 °F 93% 29.73 in 3.0 mi SE 20.7 mph 27.6 mph N/A Thunderstorm Overcast
8:09 AM 57.9 °F 55.9 °F 93% 29.74 in 2.5 mi SE 21.9 mph - 0.01 in Rain , Thunderstorm Light Thunderstorms and Rain
8:21 AM 57.9 °F 55.9 °F 93% 29.72 in 1.8 mi SE 19.6 mph - 0.07 in Rain , Thunderstorm Heavy Thunderstorms and Rain
8:48 AM 57.2 °F 57.2 °F 100% 29.74 in 2.0 mi SE 15.0 mph - 0.39 in Rain , Thunderstorm Light Rain
8:53 AM 57.9 °F 57.0 °F 97% 29.64 in 2.0 mi SE 15.0 mph - 0.40 in Rain , Thunderstorm Light Rain
9:00 AM 59.0 °F 57.0 °F 93% 29.75 in 6.0 mi SSE 15.0 mph - 0.00 in   Overcast
9:48 AM 60.8 °F 57.2 °F 88% 29.74 in 1.8 mi SSE 16.1 mph - 0.00 in   Overcast
9:49 AM 60.1 °F 59.0 °F 96% 29.64 in 1.8 mi SSE 16.1 mph - 0.00 in   Overcast
10:53 AM 63.0 °F 61.0 °F 93% 29.61 in 2.0 mi SSE 12.7 mph - N/A   Overcast
11:36 AM 64.0 °F 62.1 °F 93% 29.72 in 2.5 mi ESE 4.6 mph - N/A   Overcast
11:53 AM 60.1 °F 57.0 °F 90% 29.61 in 2.5 mi NE 15.0 mph 20.7 mph N/A   Overcast
12:08 PM 54.0 °F 53.1 °F 97% 29.72 in 2.5 mi NE 23.0 mph - N/A   Overcast
12:35 PM 55.0 °F 53.1 °F 93% 29.70 in 10.0 mi NE 15.0 mph 23.0 mph N/A   Overcast
12:53 PM 57.0 °F 54.0 °F 89% 29.61 in 10.0 mi ENE 19.6 mph - N/A   Overcast
1:43 PM 59.0 °F 55.0 °F 87% 29.67 in 10.0 mi NE 15.0 mph - N/A   Overcast
1:53 PM 60.1 °F 55.9 °F 86% 29.60 in 10.0 mi NNE 13.8 mph - N/A   Overcast
2:08 PM 59.0 °F 55.0 °F 87% 29.69 in 10.0 mi North 15.0 mph - N/A   Overcast
2:23 PM 57.0 °F 54.0 °F 89% 29.69 in 10.0 mi North 13.8 mph 21.9 mph N/A   Overcast
2:39 PM 57.0 °F 54.0 °F 89% 29.67 in 8.0 mi NNE 16.1 mph - N/A   Overcast
2:53 PM 57.0 °F 54.0 °F 89% 29.56 in 2.0 mi NNE 15.0 mph - N/A   Overcast
3:31 PM 59.0 °F 54.0 °F 83% 29.63 in 10.0 mi North 13.8 mph - N/A   Overcast
3:50 PM 57.2 °F 53.6 °F 88% 29.64 in 3.0 mi NE 17.3 mph - N/A   Overcast
3:53 PM 57.9 °F 54.0 °F 87% 29.55 in 3.0 mi NNE 17.3 mph - N/A   Overcast
4:19 PM 55.9 °F 52.0 °F 87% 29.61 in 3.0 mi NE 18.4 mph - N/A   Overcast
4:53 PM 55.9 °F 52.0 °F 87% 29.49 in 3.0 mi NE 17.3 mph - N/A   Overcast
5:27 PM 55.9 °F 52.0 °F 87% 29.61 in 3.0 mi NE 17.3 mph - N/A   Overcast
5:50 PM 57.2 °F 51.8 °F 82% 29.61 in 3.0 mi NE 15.0 mph - N/A   Overcast
5:53 PM 57.0 °F 52.0 °F 83% 29.51 in 3.0 mi NE 15.0 mph - N/A   Overcast
6:19 PM 57.0 °F 52.0 °F 83% 29.59 in 3.0 mi NE 13.8 mph - N/A   Overcast
6:50 PM 59.0 °F 53.6 °F 82% 29.61 in 10.0 mi ENE 12.7 mph - N/A   Partly Cloudy
6:53 PM 57.9 °F 52.0 °F 81% 29.51 in 10.0 mi NE 9.2 mph - N/A   Partly Cloudy
7:53 PM 57.9 °F 53.1 °F 84% 29.50 in 10.0 mi NNE 8.1 mph - N/A   Partly Cloudy
8:53 PM 55.0 °F 52.0 °F 89% 29.47 in 10.0 mi ENE 9.2 mph - N/A   Partly Cloudy
9:05 PM 55.0 °F 52.0 °F 89% 29.58 in 10.0 mi NNE 8.1 mph - N/A   Scattered Clouds
9:53 PM 54.0 °F 51.1 °F 90% 29.51 in 8.0 mi ENE 11.5 mph - N/A   Mostly Cloudy
10:07 PM 53.1 °F 51.1 °F 93% 29.58 in 2.0 mi ENE 8.1 mph - N/A   Overcast
10:18 PM 53.1 °F 51.1 °F 93% 29.58 in 0.8 mi ENE 12.7 mph - N/A   Overcast
10:40 PM 53.1 °F 52.0 °F 96% 29.58 in 0.2 mi NE 6.9 mph - N/A Fog Fog
10:53 PM 52.0 °F 51.1 °F 97% 29.47 in 0.2 mi NNE 9.2 mph - N/A Fog Fog
10:55 PM 52.0 °F 51.1 °F 97% 29.56 in 0.2 mi North 9.2 mph - N/A Fog Fog
11:08 PM 52.0 °F 51.1 °F 97% 29.60 in 0.2 mi NNW 15.0 mph - N/A Fog Fog
11:41 PM 51.1 °F 50.0 °F 96% 29.60 in 0.5 mi North 15.0 mph - N/A Fog Fog
11:53 PM 50.0 °F 48.9 °F 96% 29.51 in 0.2 mi NNW 11.5 mph - N/A Fog Fog